Showing default

CENTAURI-7, 62708

Orbit data source: Space-Track

CENTAURI-7, 62708 is a payload satellite owned by Fleet Space (AU) in SSO that was launched on Tue, 14 Jan 2025 UTC via an FALCON 9 launch vehicle from the Air Force Western Test Range (AFWTR). Payload-class satellites include a variety of spacecraft equipped with specific instruments for various scientific and technological missions. These include communications satellites like Starlink; space stations such as the ISS; scientific satellites like the Hubble; Earth observation satellites from companies like Planet Labs, Umbra, and HawkEye 360; GPS; miniature CubeSats for education and research; and military/defense satellites.

Loading next visibility...
Identifier
62708, 2025-009DD
Orbit
SSO
Country
Flag of AUAU / AUS
Related business
Manufacturer
Terran Orbital
Mission
Operational Commercial Communications
Bus & Motor
CUBESAT 12U, Unknown motor
Mass
~25 kg wet, ~25 kg dry
Launch date (UTC)
2025-01-14 (1 year ago)
Launch vehicle
FALCON 9
Launch site
Air Force Western Test Range (AFWTR)
Object type
Payload
Rocket body
Debris
Shape & HBR
Box + 2 Pan, 0.7 m
Radar Cross Section
0.183 m², Medium (>0.1 m² and < 1m²)

Expand to show TLE details & history
Last TLE update: 15 hours ago

TLE from 15 hours ago
0 CENTAURI-7
1 62708U 25009DD  26034.47257956  .00004417  00000-0  39147-3 0  9992
2 62708  97.7187 116.4972 0000437  36.7911 323.3340 14.96735449 57456
Epoch: 2026-02-03T11:20Z
TLE epoch observation values (Epoch: 2026-02-03T11:20:30.873Z)
Latitude
-0.0001°
Longitude
172.71556°
Altitude
579.797 km
Speed
7.571 km/s
True Right ascension
07h 45m 59s
True Declination
0° 00' 00"
Sunlit
Object was in full shadow at epoch
Visualization orbit readout
Latitude
Unknown
Longitude
Unknown
Altitude
Unknown
Speed
Unknown
Apparent Right ascension
Unknown
Apparent Declination
Unknown
Sunlit
N/A
Visualization observer readout
Local Sidereal Time
04:11:55
Azimuth
Unknown
Elevation
Unknown
Doppler factor
Unknown
Orbital elements
Apogee altitude
574.306 km
Perigee altitude
573.698 km
Semi-major axis
6,952.139 km
Eccentricity
0.00004
Inclination
97.7187°
RAAN
116.4972°
Arg. of periapsis
36.7911°
True anomaly
323.33101°
Mean anomaly
323.334°
Eccentric anomaly
323.3325°
Mean motion
3.74426 °/min
Orbital period
96.15 mins
BSTAR
0.00039147
Loading maneuver chart data...
Computing Atmospheric mass density...
Loading historical data...
Loading historical data...
Loading historical data...
Loading historical data...
Loading historical data...
Loading historical data...
Loading historical data...

Documentation

Showing up to 5 results
|